Avoca, PA

3:04 PM EDT on May 29, 2017 (GMT -0400)
Wilkes-Barre-Scranton International

Weather History for KAVP - April, 2013

Change the Weather History Date:

Friday, April 19, 2013

  Actual Average Record
Temperature  
Mean Temperature 62 °F 50 °F  
Max Temperature 75 °F 61 °F 91 °F (1976)
Min Temperature 48 °F 40 °F 24 °F (1904)
Degree Days  
Heating Degree Days 3 15  
Month to date heating degree days 301 353  
Since 1 July heating degree days 5451 5830  
Cooling Degree Days 0 0  
Month to date cooling degree days 4 0  
Year to date cooling degree days 4 0  
Growing Degree Days 12 (Base 50)    
Moisture  
Dew Point 54 °F    
Average Humidity 74    
Maximum Humidity 90    
Minimum Humidity 57    
Precipitation  
Precipitation 0.48 in 0.11 in 1.44 in (1998)
Month to date precipitation 1.56 2.10  
Year to date precipitation 6.51 9.05  
Sea Level Pressure  
Sea Level Pressure 29.78 in    
Wind  
Wind Speed 13 mph (SSW)    
Max Wind Speed 37 mph    
Max Gust Speed 49 mph    
Visibility 9 miles    
Events Rain    
T = Trace of Precipitation, MM = Missing Value Source: NWS Daily Summary

Daily Weather History Graph

Daily Weather History Graph

Search for Another Location

Airport or City:

Trip Planner

Search our weather history database for the weather conditions in past years. The results will help you decide how hot, cold, wet, or windy it might be!

Date:

Astronomy

Apr. 19, 2013 Rise Set
Actual Time 6:16 AM EDT 7:47 PM EDT
Civil Twilight 5:47 AM EDT 8:16 PM EDT
Nautical Twilight 5:12 AM EDT 8:51 PM EDT
Astronomical Twilight 4:35 AM EDT 9:29 PM EDT
Moon 1:26 PM EDT (4/19) 2:35 AM EDT (4/19)
Length of Visible Light 14h 28m
Length of Day
13h 30m
First Quarter, 61% of the Moon is Illuminated
Apr 19
First Quarter
Apr 25
Full
May 2
Last Quarter
May 9
New
May 18
First Quarter

Hourly Weather History & Observations

Time (EDT) Temp. Dew Point Humidity Pressure Visibility Wind Dir Wind Speed Gust Speed Precip Events Conditions
12:36 AM 59.0 °F 53.6 °F 82% 29.99 in 10.0 mi SSW 17.3 mph 27.6 mph N/A   Mostly Cloudy
12:50 AM 59.0 °F 53.6 °F 82% 29.97 in 10.0 mi South 11.5 mph 33.4 mph N/A   Scattered Clouds
12:54 AM 59.0 °F 53.1 °F 81% 29.96 in 10.0 mi South 12.7 mph 33.4 mph N/A   Partly Cloudy
1:47 AM 60.8 °F 53.6 °F 77% 29.96 in 10.0 mi SSW 5.8 mph 20.7 mph N/A   Mostly Cloudy
1:54 AM 60.1 °F 54.0 °F 80% 29.94 in 10.0 mi South 9.2 mph 23.0 mph N/A   Mostly Cloudy
2:40 AM 60.8 °F 55.4 °F 82% 29.90 in 10.0 mi SSE 10.4 mph 25.3 mph N/A   Scattered Clouds
2:54 AM 60.1 °F 55.0 °F 83% 29.91 in 10.0 mi South 9.2 mph 24.2 mph N/A   Scattered Clouds
3:09 AM 60.8 °F 55.4 °F 82% 29.92 in 10.0 mi SSW 8.1 mph 25.3 mph N/A   Mostly Cloudy
3:54 AM 61.0 °F 55.0 °F 81% 29.89 in 10.0 mi SSW 15.0 mph 31.1 mph N/A   Scattered Clouds
4:06 AM 60.8 °F 55.4 °F 82% 29.90 in 10.0 mi West 8.1 mph 24.2 mph N/A   Mostly Cloudy
4:15 AM 60.8 °F 55.4 °F 82% 29.90 in 10.0 mi Variable 6.9 mph 18.4 mph N/A   Mostly Cloudy
4:54 AM 61.0 °F 55.0 °F 81% 29.88 in 10.0 mi Variable 5.8 mph - N/A   Overcast
5:43 AM 60.8 °F 55.4 °F 82% 29.87 in 10.0 mi Variable 5.8 mph - N/A   Overcast
5:54 AM 61.0 °F 55.0 °F 81% 29.86 in 10.0 mi SW 9.2 mph - N/A   Overcast
6:44 AM 62.6 °F 53.6 °F 72% 29.87 in 10.0 mi South 15.0 mph 25.3 mph N/A   Scattered Clouds
6:54 AM 62.1 °F 54.0 °F 75% 29.85 in 10.0 mi South 11.5 mph 24.2 mph N/A   Clear
7:42 AM 62.6 °F 55.4 °F 77% 29.86 in 10.0 mi South 10.4 mph 25.3 mph N/A   Mostly Cloudy
7:54 AM 63.0 °F 55.9 °F 78% 29.85 in 10.0 mi South 15.0 mph 28.8 mph N/A   Overcast
8:34 AM 62.6 °F 55.4 °F 77% 29.82 in 10.0 mi South 15.0 mph 38.0 mph N/A   Scattered Clouds
8:54 AM 63.0 °F 55.9 °F 78% 29.82 in 10.0 mi South 18.4 mph 36.8 mph N/A   Partly Cloudy
9:54 AM 66.9 °F 55.9 °F 68% 29.77 in 10.0 mi South 12.7 mph 39.1 mph N/A   Clear
10:04 AM 66.2 °F 55.4 °F 68% 29.78 in 10.0 mi South 21.9 mph 38.0 mph N/A   Mostly Cloudy
10:54 AM 64.0 °F 57.0 °F 78% 29.78 in 10.0 mi South 18.4 mph 26.5 mph N/A   Overcast
11:54 AM 68.0 °F 55.9 °F 65% 29.76 in 10.0 mi SSW 12.7 mph 33.4 mph N/A   Overcast
12:54 PM 66.9 °F 55.9 °F 68% 29.73 in 10.0 mi South 18.4 mph 26.5 mph N/A   Overcast
1:33 PM 68.0 °F 57.2 °F 68% 29.73 in 10.0 mi South 13.8 mph 25.3 mph N/A   Overcast
1:54 PM 69.1 °F 57.0 °F 65% 29.70 in 10.0 mi South 16.1 mph 27.6 mph N/A   Overcast
2:54 PM 71.1 °F 57.9 °F 63% 29.63 in 10.0 mi South 13.8 mph 29.9 mph N/A   Overcast
3:54 PM 73.9 °F 57.9 °F 57% 29.58 in 10.0 mi SSW 17.3 mph 27.6 mph N/A   Partly Cloudy
4:54 PM 72.0 °F 57.9 °F 61% 29.57 in 10.0 mi South 13.8 mph 31.1 mph N/A   Overcast
5:54 PM 70.0 °F 60.1 °F 71% 29.56 in 8.0 mi South 21.9 mph 34.5 mph 0.00 in Rain Light Rain
6:54 PM 68.0 °F 61.0 °F 78% 29.54 in 10.0 mi South 15.0 mph 26.5 mph 0.01 in Rain Light Rain
7:40 PM 64.4 °F 60.8 °F 88% 29.63 in 1.2 mi WSW 31.1 mph 49.5 mph 0.03 in Rain Rain
7:44 PM 60.8 °F 57.2 °F 88% 29.63 in 0.8 mi SW 26.5 mph 49.5 mph 0.19 in Rain Heavy Rain
7:54 PM 60.1 °F 57.0 °F 90% 29.62 in 2.5 mi WSW 13.8 mph 34.5 mph 0.31 in Rain Rain
8:01 PM 59.0 °F 55.4 °F 88% 29.65 in 5.0 mi SW 13.8 mph 26.5 mph 0.02 in Rain Light Rain
8:17 PM 57.2 °F 53.6 °F 88% 29.66 in 6.0 mi WSW 15.0 mph 24.2 mph 0.04 in Rain Light Rain
8:30 PM 57.2 °F 53.6 °F 88% 29.68 in 6.0 mi West 13.8 mph 23.0 mph 0.06 in Rain Light Rain
8:44 PM 55.4 °F 53.6 °F 94% 29.69 in 6.0 mi WSW 11.5 mph - 0.08 in Rain Light Rain
8:52 PM 55.4 °F 51.8 °F 88% 29.71 in 6.0 mi WSW 18.4 mph 27.6 mph 0.09 in Rain Light Rain
8:54 PM 55.0 °F 51.1 °F 86% 29.70 in 6.0 mi WSW 16.1 mph 27.6 mph 0.09 in Rain Light Rain
9:02 PM 53.6 °F 46.4 °F 77% 29.72 in 7.0 mi WSW 20.7 mph 34.5 mph 0.01 in Rain Rain
9:54 PM 52.0 °F 42.1 °F 69% 29.72 in 10.0 mi SW 8.1 mph - 0.02 in   Mostly Cloudy
10:54 PM 51.1 °F 42.1 °F 71% 29.73 in 9.0 mi SW 9.2 mph 18.4 mph 0.00 in Rain Light Rain
11:54 PM 48.9 °F 44.1 °F 83% 29.72 in 10.0 mi West 5.8 mph - 0.02 in Rain Light Rain